Flag for United Kingdom Weather past 2 weeks in Middlesbrough, England, United Kingdom

Now
45 °F

Passing clouds.


Feels Like: 40 °F
Forecast: N/A
Wind: 8 mph from Southwest

Location: Tees-Side

Current Time: Mar 27, 2015 at 7:43:29 PM

Latest Report: Mar 27, 2015 at 7:20 PM


Visibility: N/A

Pressure: 30.07 "Hg

Humidity: 53%

Dew point: 28 °F

Location of MiddlesbroughLocation

Historic Weather in Middlesbrough — Graph

°F

Middlesbrough temperature yesterday

Maximum temperature yesterday: 52 °F (at 3:20 PM)
Minimum temperature yesterday: 36 °F (at 7:50 AM)
Average temperature yesterday: 45 °F

Past Weeks' High & Low Weather Summary

 TemperatureHumidityPressure
High55 °F (Mar 20, 12:20 PM)100% (Mar 13, 9:50 AM)30.63 "Hg (Mar 13, 9:50 AM)
Low28 °F (Mar 25, 5:50 AM)41% (Mar 22, 3:50 PM)29.39 "Hg (Mar 26, 8:20 AM)
Average43 °F73%30.20 "Hg
* Reported Mar 12 6:20 PM — Mar 27 6:20 PM, Middlesbrough, Weather by CustomWeather, © 2015

Note: Actual official high and low records may vary slightly from our data, if they occured in-between our weather recording intervals... More about our weather records

Advertising

Middlesbrough weather history for previous 24 hours

 ConditionsComfort  
Time TempWeatherWind HumidityBarometerVisibility
6:20 PM
Fri, Mar 27
46 °FScattered clouds.8 mph53%30.07 "HgN/A
5:50 PM48 °FPassing clouds.12 mph50%30.07 "HgN/A
5:20 PM48 °FPassing clouds.13 mph54%30.07 "HgN/A
4:50 PM48 °FPassing clouds.14 mph54%30.04 "HgN/A
4:20 PM48 °FPassing clouds.14 mph46%30.04 "HgN/A
3:50 PM50 °FPassing clouds.15 mph43%30.04 "HgN/A
3:20 PM50 °FPassing clouds.13 mph43%30.04 "HgN/A
2:50 PM48 °FPassing clouds.13 mph46%30.04 "HgN/A
2:20 PM50 °FPassing clouds.12 mph47%30.04 "HgN/A
1:50 PM50 °FPassing clouds.10 mph43%30.04 "HgN/A
1:20 PM50 °FScattered clouds.9 mph43%30.04 "HgN/A
12:50 PM50 °FScattered clouds.10 mph43%30.04 "HgN/A
12:20 PM50 °FScattered clouds.9 mph47%30.04 "HgN/A
11:50 AM50 °FScattered clouds.12 mph47%30.04 "HgN/A
11:20 AM48 °FScattered clouds.14 mph54%30.04 "HgN/A
10:50 AM46 °FPassing clouds.13 mph53%30.07 "HgN/A
10:20 AM46 °FPassing clouds.13 mph57%30.04 "HgN/A
9:50 AM46 °FPassing clouds.13 mph57%30.04 "HgN/A
9:20 AM45 °FPassing clouds.13 mph61%30.04 "HgN/A
8:50 AM45 °FPassing clouds.13 mph61%30.04 "HgN/A
8:20 AM43 °FPassing clouds.10 mph66%30.01 "HgN/A
7:50 AM41 °FPassing clouds.10 mph70%30.01 "HgN/A
7:20 AM39 °FPassing clouds.8 mph75%30.01 "HgN/A
6:50 AM37 °FPassing clouds.9 mph81%30.01 "HgN/A
6:20 AM39 °FPassing clouds.10 mph75%29.98 "HgN/A
5:50 AM37 °FPassing clouds.9 mph75%29.98 "HgN/A
11:50 PM
Thu, Mar 26
41 °FClear.12 mph70%29.86 "Hg10 mi
11:20 PM41 °FClear.14 mph70%29.86 "Hg10 mi
10:50 PM43 °FClear.13 mph66%29.83 "Hg10 mi
10:20 PM43 °FClear.16 mph66%29.80 "Hg10 mi
9:50 PM43 °FClear.15 mph66%29.80 "Hg10 mi
9:20 PM43 °FClear.15 mph66%29.77 "Hg10 mi
8:50 PM45 °FClear.21 mph61%29.74 "Hg10 mi
8:20 PM45 °FClear.17 mph61%29.71 "Hg10 mi
7:50 PM45 °FClear.14 mph61%29.71 "Hg10 mi
7:20 PM46 °FClear.21 mph57%29.68 "Hg10 mi
Weather by CustomWeather, © 2015

See weather overviewHow to use our weather pages